Location: Jetmore Oil Field
(38.1181°N, 99.9337°W)
Time: 10:08:48
(UTC+00:00)

Cosmos 2061 Rocket - Pass Details

Date: 17 February 2020
Orbit: 965 x 1014 km, 82.9° (Epoch: 29 March)

Event Time Altitude Azimuth Distance (km) Brightness Sun altitude
Rises 01:03:08 0° 177° (S) 3,733 7.1 -9.3°
Reaches altitude 10° 01:05:41 10° 174° (S) 2,786 6.4 -9.8°
Maximum altitude 01:12:02 68° 93° (E) 1,087 4.0 -11.1°
Drops below altitude 10° 01:18:24 10° 12° (NNE) 2,790 6.2 -12.3°
Sets 01:20:57 0° 10° (N) 3,739 6.9 -12.8°
